Location: Diati
(11.8376°N, 2.5966°E)
Time: 06:22:14
(UTC+00:00)

Daily predictions for brighter satellites

Satellite Brightness Start Highest point End
(mag) Time Altitude Azimuth Time Altitude Azimuth Time Altitude Azimuth
DELTA-4 R/B 4.4 17:54:46 10° W 17:59:15 79° S 18:26:15 10° ESE
NOAA 11 4.2 18:01:12 10° SSE 18:06:39 69° ENE 18:12:07 10° N
IRS-1C Rocket 4.2 18:01:49 10° SSE 18:06:56 53° ENE 18:12:00 10° N
Cosmos 923 Rocket 4.1 18:03:25 10° N 18:08:27 51° ENE 18:13:29 10° SSE
SWARM A 4.4 18:05:44 10° N 18:09:02 78° W 18:12:20 10° S
Okean O Rocket 3.8 18:05:47 10° SSW 18:09:43 31° W 18:13:41 10° NW
Intelsat 5-3 Rocket 3.0 18:09:15 10° NW 18:12:34 57° NNE 18:20:10 10° ESE
Helios 1A Rocket 3.2 18:09:07 10° SSE 18:13:01 46° ENE 18:16:55 10° N
TIMED 4.5 18:10:09 10° N 18:14:30 82° ENE 18:18:51 10° SSE
Cosmos 2298 Rocket 4.0 18:09:18 10° S 18:14:32 64° ESE 18:19:48 10° NNE
ARIANE 5 R/B 3.4 18:04:40 10° W 18:16:14 31° SSW 18:19:25 10° SE
Cosmos 372 Rocket 4.4 18:12:35 10° SSW 18:17:47 69° WNW 18:22:59 10° N
ARIANE 5 R/B 3.8 18:15:36 10° WSW 18:19:38 17° SSW 18:21:38 10° SSE
CZ-2C R/B 4.2 18:16:17 10° ESE 18:20:04 22° ENE 18:23:59 10° NNE
Exosat Rocket 4.4 18:14:15 10° S 18:21:39 46° ESE 18:27:06 10° NE
MOS 1 Rocket 3.4 18:19:45 10° NNE 18:23:48 42° E 18:27:52 10° S
Feng Yun 1-1 Rocket 4.4 18:19:43 10° S 18:25:05 76° WSW 18:30:34 10° NNW
NOSS 3-4 (A) 3.5 18:19:53 10° S 18:25:34 47° ESE 18:31:09 10° NE
NOSS 3-4 (C) 3.6 18:20:01 10° S 18:25:41 46° ESE 18:31:14 10° NE
USA 234 3.3 18:19:34 10° NE 18:26:05 70° SE 18:32:35 10° SSW
GPS 2-04 Rocket1 3.2 18:22:57 10° NW 18:26:59 46° NE 18:29:57 16° ESE
Cosmos 1437 3.2 18:28:47 10° NNE 18:31:30 32° E 18:34:12 10° SSE
Delta 168 3.5 18:29:25 10° NW 18:33:56 40° NNE 18:36:01 20° ENE
Cosmos 1975 Rocket 3.4 18:31:27 10° NNE 18:35:29 40° E 18:39:32 10° SSE
CZ-2C R/B 3.4 18:33:54 10° NE 18:38:47 31° E 18:43:38 10° SSE
CZ-4 R/B 1.4 18:38:06 10° SSE 18:42:17 73° ENE 18:46:29 10° N
Cosmos 1844 3.7 18:36:35 10° SSW 18:42:20 89° WNW 18:48:03 10° NNE
Cosmos 2150 Rocket 4.5 18:38:08 10° SSW 18:43:21 65° WNW 18:48:39 10° N
Cosmos 1842 3.1 18:40:00 10° N 18:43:51 89° E 18:47:45 10° S
Cosmos 1844 Rocket 3.2 18:39:11 10° SSW 18:44:39 63° WNW 18:50:08 10° N
Cosmos 1125 Rocket 3.4 18:40:09 10° S 18:45:25 78° ESE 18:50:42 10° NNE
ATLAS 2AS CENTAUR R/B 2.9 18:39:38 10° SSW 18:47:08 68° ESE 18:54:59 10° NNE
Cosmos 1900 4.3 18:42:32 10° NNW 18:47:40 80° ENE 18:52:43 10° SSE
Okean 2 3.6 18:44:00 10° N 18:48:07 72° W 18:52:13 10° S
Ariane H10+ 3.7 18:51:18 10° SSW 18:51:51 12° S 18:51:51 12° S
Cosmos 1707 4.3 18:49:17 10° NNE 18:50:51 20° NE 18:50:51 20° NE
GPS 2-17 Rocket1 4.0 18:52:10 10° W 18:56:29 39° N 18:58:44 24° NE
Gbstr 26 Del rocket 4.4 18:52:45 10° S 18:58:05 38° ESE 19:00:15 30° E
Cosmos 2112 Rocket 4.3 18:54:53 10° NNW 19:00:04 69° WSW 19:05:18 10° S
Cosmos 1300 Rocket 4.3 18:55:56 10° SSW 19:00:11 55° W 19:04:29 10° N
Okean 2 Rocket 3.9 18:56:31 10° SSW 19:00:55 53° W 19:05:19 10° N
Cosmos 1680 Rocket 4.4 18:57:50 10° NNW 19:02:54 50° WSW 19:07:59 10° S
CSL-04 Debris 4.0 19:02:25 10° SSE 19:07:48 74° ENE 19:13:09 10° N
Cosmos 2285 Rocket 4.0 19:02:24 10° SSW 19:08:41 81° WNW 19:14:59 10° N
YAOGAN 1 3.2 19:06:10 10° S 19:10:24 56° W 19:14:38 10° NNW
Okean-O 4.3 19:09:28 10° SSW 19:13:28 34° W 19:17:29 10° NW
CSL-04 Rocket 3.5 19:08:13 10° SSE 19:13:34 80° ENE 19:18:58 10° N
DMSP B5D2-2 4.0 19:09:43 10° NNE 19:14:56 65° ESE 19:20:08 10° S
H-2A R/B 1.7 19:15:45 38° SSE 19:17:38 74° ENE 19:22:34 10° N
Cosmos 1943 3.1 19:12:21 10° NNW 19:18:00 88° W 19:21:46 22° SSE
FUSE 4.2 19:13:12 10° SW 19:18:19 49° SSE 19:18:27 49° SSE
Milstar 3 Cent rocket 4.1 19:28:36 10° WNW 19:33:52 20° NNW 19:36:09 16° N
SEDSat Delta rocket 3.7 19:35:23 10° WNW 19:39:29 55° WNW 19:39:29 55° WNW
ATLAS 5 CENTAUR R/B 3.4 19:39:30 10° NW 19:39:37 11° NW 19:39:37 11° NW
ARGOS 3.9 19:57:32 48° WNW 19:57:32 48° WNW 20:01:43 10° NNW
Milstar 3 4.4 19:51:05 10° SSW 19:55:18 27° S 19:55:18 27° S
Ariane H10 4.1 19:46:45 10° W 19:58:43 38° SSW 19:59:02 38° SSW
